#timestamp,LO_Frequency,Hit,StdDev 
1555880415.0,286047004.2,P
1555880415.9,286047004.2,P
1555880435.7,286047001.7,N
1555880455.6,286046999.8,N
1555880475.4,286047001.4,N
1555880495.3,286047000.0,N
1555880515.1,286046998.6,N
1555880516.0,286046998.6,N
1555880535.8,286047000.8,N
1555880555.7,286046998.5,N
1555880575.5,286047002.1,N
1555880595.4,286047000.1,N
1555880615.2,286047000.6,N
1555880635.0,286047001.8,N
1555880635.9,286047001.8,N
1555880655.8,286047004.2,N
1555880675.6,286047001.7,N
1555880695.4,286047002.8,N
1555880715.3,286047000.3,N
1555880735.1,286047002.2,N
1555880755.9,286047000.5,N
1555880775.7,286046998.1,N
1555880795.5,286047001.0,N
1555880815.4,286047001.1,N
1555880835.2,286047002.0,N
1555880855.1,286046999.7,N
1555880856.0,286046999.7,N
1555880875.8,286047000.2,N
1555880895.6,286047003.4,N
1555880915.5,286047002.6,N
1555880935.3,286047004.0,N
1555880955.1,286047001.4,N
1555880975.9,286047002.5,N
1555880995.7,286047002.2,N
1555881015.6,286047003.7,N
1555881035.4,286047001.6,N
1555881055.2,286047002.0,N
1555881075.1,286047001.0,N
1555881076.0,286047001.0,N
1555881095.8,286047001.0,N
1555881115.6,286047002.4,N
1555881135.5,286047003.7,N
1555881155.3,286047001.6,N
1555881175.2,286047003.3,N
1555881195.9,286047005.5,Y
1555881215.7,286047004.2,P
1555881235.6,286047004.0,P
1555881255.4,286047005.7,P
1555881275.2,286047005.7,Y
1555881295.1,286046999.5,P
1555881296.0,286046999.5,N
1555881315.8,286046996.5,N
1555881335.7,286046998.8,N
1555881355.5,286046998.6,N
1555881375.3,286046999.3,N
1555881395.2,286047001.1,N
1555881415.0,286047000.3,N
1555881415.9,286047000.3,N
1555881435.7,286047001.5,N
1555881455.6,286047000.0,N
1555881475.4,286046998.7,N
1555881495.3,286047000.3,N
1555881515.1,286046999.8,N
1555881516.0,286046999.8,N
1555881535.8,286047000.6,N
1555881555.7,286047000.7,N
1555881575.5,286046998.9,N
1555881595.3,286046998.2,N
1555881615.2,286047000.9,N
1555881635.0,286047002.6,N
1555881635.9,286047002.6,N
1555881655.8,286047001.6,N
1555881675.6,286047000.3,N
1555881695.4,286046998.3,N
1555881715.3,286047001.1,N
1555881735.1,286047000.6,N
1555881755.8,286047000.3,N
1555881775.7,286047002.7,N
1555881795.5,286047000.6,N
1555881815.4,286047002.3,N
1555881835.2,286047000.0,N
1555881855.0,286046997.2,N
1555881855.9,286046997.2,N
1555881875.8,286046997.1,N
1555881895.6,286046997.3,N
1555881915.4,286046997.3,N
1555881935.3,286046997.1,N
1555881955.1,286046996.8,N
1555881975.9,286046998.3,N
1555881995.7,286046996.6,N
1555882015.5,286046998.9,N
1555882035.4,286047000.2,N
1555882055.2,286047001.2,N
1555882075.0,286046998.3,N
1555882075.9,286046998.3,N
1555882095.8,286046998.3,N
1555882115.6,286046998.7,N
1555882135.4,286046996.9,N
1555882155.3,286046995.0,N
1555882175.1,286046999.5,N
1555882195.9,286046999.1,N
1555882215.7,286046999.0,N
1555882235.5,286047001.2,N
1555882255.4,286047001.1,N
1555882275.2,286047000.7,N
1555882295.0,286046999.1,N
1555882295.9,286046999.1,N
1555882315.8,286046999.2,N
1555882335.6,286046998.8,N
1555882355.5,286046998.5,N
1555882375.3,286046998.1,N
1555882395.1,286046999.4,N
1555882415.9,286046999.5,N
1555882435.7,286046996.9,N
1555882455.5,286046998.0,N
1555882475.4,286046994.9,Y
1555882495.2,286046998.0,P
1555882515.1,286046996.8,P
1555882516.0,286046996.8,P
1555882535.8,286046999.1,N
1555882555.6,286047000.7,N
1555882575.5,286046998.6,N
1555882595.3,286046997.2,N
1555882615.2,286046997.7,N
1555882635.9,286046996.8,N
1555882655.7,286046993.3,Y
1555882675.6,286046997.8,P
1555882695.4,286046997.3,P
1555882715.3,286046996.8,P
1555882735.1,286046999.4,N
1555882736.0,286046999.4,N
1555882755.8,286046997.6,N
1555882775.7,286046997.5,N
1555882795.5,286046997.4,N
1555882815.3,286046997.3,Y
1555882835.2,286046998.9,P
1555882855.0,286046997.7,P
1555882855.9,286046997.7,P
1555882875.8,286046995.3,Y
1555882895.6,286046999.0,P
1555882915.4,286046998.8,N
1555882935.3,286046996.5,P
1555882955.1,286046999.5,N
1555882975.8,286046999.6,N
1555882995.7,286046998.9,N
1555883015.5,286047001.2,N
1555883035.4,286046998.4,N
1555883055.2,286046999.6,N
1555883075.0,286046997.0,N
1555883075.9,286046997.0,N
1555883095.8,286046999.6,N
1555883115.6,286046999.2,N
1555883135.4,286046999.6,N
1555883155.3,286046996.9,N
1555883175.1,286046997.4,N
1555883195.9,286046997.4,N
1555883215.7,286046994.9,Y
1555883235.5,286046999.0,P
1555883255.4,286046999.1,P
1555883275.2,286046998.5,P
1555883295.0,286047001.2,Y
1555883296.0,286047001.2,P
1555883315.8,286046999.8,N
1555883335.6,286047001.0,N
1555883355.5,286047001.0,N
1555883375.3,286047000.6,N
1555883395.1,286046998.7,N
1555883415.9,286046998.9,N
1555883435.7,286046999.1,N
1555883455.5,286047001.2,N
1555883475.4,286047000.3,N
1555883495.2,286047001.0,N
1555883515.1,286046998.4,N
1555883516.0,286046998.4,N
1555883535.8,286046998.1,N
1555883555.6,286046998.3,N
1555883575.5,286047002.6,N
1555883595.3,286047000.0,N
1555883615.1,286046998.2,N
1555883635.9,286046999.7,N
1555883655.7,286047001.2,N
1555883675.6,286047001.1,N
1555883695.4,286047001.2,N
1555883715.2,286046998.9,N
1555883735.2,286046999.4,N
1555883755.0,286046999.1,N
1555883755.9,286046999.1,N
1555883775.8,286046998.3,N
1555883795.6,286046999.7,N
1555883815.4,286047002.7,N
1555883835.3,286047004.3,Y
1555883855.1,286047001.6,P
1555883875.8,286047003.9,P
1555883895.7,286047003.5,N
1555883915.5,286047003.8,N
1555883935.4,286047005.6,Y
1555883955.2,286047000.1,P
1555883975.0,286046996.6,N
1555883975.9,286046996.6,N
1555883995.8,286046999.6,N
